Location: Joplin, MO
(37.0842°N, 94.5133°W)
Time: 21:40:39
(UTC+02:00)

Courier 1B Rocket - Pass Details

Date: 09 April 2023
Orbit: 920 x 1202 km, 28.2° (Epoch: 05 June)

Event Time Altitude Azimuth Distance (km) Brightness Sun altitude
Rises 03:47:48 0° 264° (W) 4,066 9.5 -12.6°
Reaches altitude 10° 03:51:34 10° 249° (WSW) 3,070 8.3 -13.3°
Maximum altitude 03:56:40 20° 206° (SSW) 2,372 7.1 -14.3°
Drops below altitude 10° 04:01:37 10° 163° (SSE) 2,941 7.1 -15.2°
Enters shadow 04:02:27 - 158° (SSE) 3,135 7.2 -15.3°
Sets 04:05:08 0° 146° (SSE) 3,842 - -15.8°
